TITAN 3C TRANSTAGE R/B, 8751

Orbit data source: Space-Track

TITAN 3C TRANSTAGE R/B, 8751 is space debris in GEO originally from a launch on Mon, 15 Mar 1976 UTC launched from the Air Force Eastern Test Range (AFETR). Debris objects in space refer to the collection of defunct objects orbiting the Earth. Examples of debris include non-operational satellites, rocket bodies, and fragments generated from explosions, collisions, or faulty payload assembly.

Not visible in the next 10 days
Identifier
8751, 1976-023F
Orbit
GEO
Last TLE update
2 days ago
Origin
Manufacturer
Martin Marietta
Mission
Spacecraft
Bus & Motor
TRANSTAGE, Unknown motor
Mass
~1,950 kg wet, ~1,950 kg dry
Launch date (UTC)
1976-03-15 (49 years ago)
Launch vehicle
Unknown
Launch site
Air Force Eastern Test Range (AFETR)
Object type
Payload
Rocket body
Debris
Shape & HBR
Cyl + 2 Nozzle, 4.6 m
Radar Cross Section
14.974 m², Large (>1 m²)

Expand to show TLE details & history

TLE from 2 days ago
0 TITAN 3C TRANSTAGE R/B
1 08751U 76023F   25127.69016140 -.00000203  00000-0  00000-0 0  9999
2 08751  21.0280  47.8343 0121730  94.3846  80.2154  0.98325284179225
Epoch: 2025-05-07T16:33Z
Definitive object data (Epoch: 2025-05-07T16:33:49.944Z)
Latitude
1.41972°
Longitude
109.86534°
Altitude
36,258.497 km
Speed
3.061 km/s
True Right ascension
14h 56m 22s
True Declination
1° 25' 06"
Sunlit
Object was in daylight at TLE epoch
Visualization TLE readout
Latitude
15.81736°
Longitude
66.1408°
Altitude
35,920.548 km
Speed
3.085 km/s
Apparent Right ascension
11h 51m 53s
Apparent Declination
9° 20' 42"
Sunlit
Object is in daylight
Visualization observer readout
Local Sidereal Time
22:30:31
Azimuth
334.471° NNW
Elevation
-37.259°
Doppler factor
1
Orbital elements
Apogee altitude
36,862.144 km
Perigee altitude
35,822.077 km
Semi-major axis
42,720.247 km
Eccentricity
0.012173
Inclination
21.028°
RAAN
47.8343°
Arg. of periapsis
94.3846°
True anomaly
81.59346°
Mean anomaly
80.2154°
Eccentric anomaly
80.90409°
Mean motion
0.24581 °/min
BSTAR
Unknown
Orbital period
1464.57 mins
Loading historical data...
8751 neighbors
Loading maneuver chart data...
Loading SW <> Apogee altitude chart data...
Loading historical data...
Loading historical data...
Loading historical data...
Loading historical data...
Loading historical data...
Loading historical data...
Loading historical data...

TITAN 3C TRANSTAGE R/B Visibility forecast

Observer location: undefined°, undefined°

TITAN 3C TRANSTAGE R/B is not visible in the next 10 days
Span
Click to sort rows by Start time (UTC) header in descending order
Start Az.
Max El. time (UTC)
Max El. Az.
Max El.
End time (UTC)
End Az.
|